Regional Weather Roundup
Issued by NWS

Home | Current Version | Previous Version | Graphics & Text | Print | Product List | Glossary On
Versions: 1 2 3 4 5 6 7 8 9 10 11 12 13 14 15 16 17 18 19 20 21 22 23 24 25 26 27 28 29 30 31 32 33 34 35 36 37 38 39 40 41 42 43 44 45 46 47 48 49 50
000
ASUS43 KOAX 231903
RWRNE

WEATHER ROUNDUP FOR NEBRASKA
NATIONAL WEATHER SERVICE OMAHA NE
200 PM CDT WED MAY 23 2018

NOTES: SATELLITE DATA IS BEING USED TO AUGMENT CLOUD COVER ABOVE
       12000 FEET.
       "FAIR" INDICATES FEW OR NO CLOUDS BELOW 12,000 FEET WITH NO
       SIGNIFICANT WEATHER AND/OR OBSTRUCTIONS TO VISIBILITY.


NEZ001>004-019>022-054>056-232000-
NEBRASKA PANHANDLE

CITY           SKY/WX    TMP DP  RH WIND       PRES   REMARKS
SCOTTSBLUFF    SUNNY     77  53  43 SE6       29.94F
ALLIANCE       MOSUNNY   74  56  53 E9        29.94S
CHADRON        MOSUNNY   74  59  59 NW6       29.92F
GORDON         FAIR      71  60  69 NE8       29.93F
KIMBALL        SUNNY     73  51  45 SE7       30.00F
SIDNEY         MOSUNNY   76  58  53 VRB5      29.98F
$$

NEZ057>060-069>072-079>082-232000-
SOUTHWEST NEBRASKA

CITY           SKY/WX    TMP DP  RH WIND       PRES   REMARKS
NORTH PLATTE   CLOUDY    79  60  52 S9G21     29.96F
IMPERIAL       PTSUNNY   84  52  33 SW21G29   29.96F
LEXINGTON      PTSUNNY   82  65  57 S10       29.99S
MCCOOK         CLOUDY    81  59  47 S13G23    29.97S
OGALLALA       PTSUNNY   81  55  41 S13G24    29.95F
$$

NEZ005>010-023>029-035>040-094-232000-
NORTH CENTRAL NEBRASKA

CITY           SKY/WX    TMP DP  RH WIND       PRES   REMARKS
VALENTINE      PTSUNNY   82  56  40 S20G26    29.92F
AINSWORTH      MOSUNNY   79  62  56 S10       29.95S
BROKEN BOW     PTSUNNY   81  61  50 SE14      29.98F
O`NEILL        MOSUNNY   85  61  45 S22G30    29.97S
ORD            CLOUDY    79  59  50 S10       29.98F
THEDFORD       CLOUDY    81  57  44 S15G24    29.97S
$$

NEZ041-046>049-061>064-073>077-083>087-232000-
SOUTH CENTRAL NEBRASKA

CITY           SKY/WX    TMP DP  RH WIND       PRES   REMARKS
GRAND ISLAND   MOSUNNY   85  64  49 S14       29.99F
AURORA         MOSUNNY   87  59  38 S17G25    29.99F
HASTINGS       MOSUNNY   87  61  41 SE15G31   29.99F
HEBRON         SUNNY     91  56  31 S18G31    30.01F
HOLDREGE       SUNNY     86  60  41 S20G25    29.99S
KEARNEY        MOSUNNY   87  63  44 S20       29.98F
YORK           MOSUNNY   88  59  37 S17G26    30.00F
$$

NEZ011>018-030>034-042>045-232000-
NORTHEAST NEBRASKA

CITY           SKY/WX    TMP DP  RH WIND       PRES   REMARKS
NORFOLK        SUNNY     88  61  40 SE22G30   29.96F
ALBION         PTSUNNY   85  67  54 S16G23    29.99F
BLAIR          SUNNY     88  63  42 S15G22    30.03F
COLUMBUS       MOSUNNY   90  62  39 S16G23    30.00F HX  90
FREMONT        MOSUNNY   90  61  38 S14G23    30.01F HX  90
TEKAMAH        MOSUNNY   87  68  52 S16       30.02F HX  90
WAYNE          MOSUNNY   86  62  44 S20G29    29.99F
$$

NEZ050>053-065>068-078-088>093-232000-
SOUTHEAST NEBRASKA

CITY           SKY/WX    TMP DP  RH WIND       PRES   REMARKS
LINCOLN        SUNNY     89  62  40 S16G26    30.01F
OMAHA EPPLEY   MOSUNNY   89  63  41 S15G23    30.02F HX  90
BEATRICE       MOSUNNY   88  63  43 S15G21    30.02F
FALLS CITY     MOSUNNY   90  61  37 S15G24    30.04F HX  90
NEBRASKA CITY  PTSUNNY   88  63  42 S14G24    30.04F
PLATTSMOUTH    MOSUNNY   87  62  43 SE10      30.04F
$$

NEZ044-045-051>053-067-232000-
OMAHA AREA

CITY           SKY/WX    TMP DP  RH WIND       PRES   REMARKS
OMAHA EPPLEY   MOSUNNY   89  63  41 S15G23    30.02F HX  90
BLAIR          SUNNY     88  63  42 S15G22    30.03F
FREMONT        MOSUNNY   90  61  38 S14G23    30.01F HX  90
MILLARD        MOSUNNY   89  65  45 SE13      30.02F HX  91
OFFUTT AFB     SUNNY     88  64  43 S14       30.02F
PLATTSMOUTH    MOSUNNY   87  62  43 SE10      30.04F
WAHOO          FAIR      91  53  27 S23G29    30.02F
$$



USA.gov is the U.S. government's official web portal to all federal, state and local government web resources and services.